QPF
0.03 0.04 0.06 0.06 0.06 0.05 0.05 0.05 0.05 0.06 0.07 0.09 0.09 0.09 0.08 0.07 0.06 0.05 0.07 0.10 0.12 0.12 0.10 0.08 0.07 0.05 0.03 0.02 0.01 0.02 0.03 0.03 0.02 0.02 0.01 0.01 0.01 0.01 0.00 0.00 0.00 0.00 0.00
0.04 0.04 0.05 0.07 0.06 0.05 0.04 0.05 0.05 0.05 0.05 0.05 0.05 0.07 0.08 0.07 0.06 0.05 0.05 0.06 0.08 0.10 0.10 0.08 0.07 0.07 0.06 0.04 0.02 0.02 0.01 0.01 0.01 0.02 0.02 0.01 0.01 0.01 0.00 0.00 0.00 0.00 0.00
0.02 0.03 0.04 0.06 0.08 0.06 0.04 0.04 0.05 0.05 0.05 0.05 0.06 0.06 0.08 0.07 0.04 0.03 0.04 0.06 0.06 0.06 0.07 0.07 0.07 0.07 0.06 0.05 0.05 0.03 0.02 0.01 0.01 0.01 0.02 0.02 0.01 0.00 0.00 0.00 0.00 0.00 0.00
0.02 0.02 0.02 0.03 0.07 0.06 0.06 0.06 0.06 0.06 0.06 0.06 0.06 0.07 0.06 0.06 0.04 0.04 0.05 0.06 0.06 0.06 0.05 0.05 0.05 0.06 0.06 0.04 0.03 0.03 0.02 0.02 0.02 0.02 0.02 0.02 0.01 0.01 0.01 0.00 0.00 0.00 0.00
0.01 0.01 0.02 0.02 0.05 0.06 0.06 0.07 0.06 0.07 0.07 0.07 0.07 0.08 0.08 0.07 0.06 0.05 0.07 0.08 0.06 0.04 0.04 0.04 0.04 0.05 0.07 0.06 0.05 0.03 0.02 0.01 0.02 0.02 0.02 0.02 0.02 0.02 0.01 0.01 0.00 0.00 0.00
0.02 0.01 0.02 0.02 0.03 0.04 0.04 0.05 0.06 0.05 0.07 0.08 0.07 0.07 0.08 0.07 0.06 0.05 0.05 0.06 0.05 0.04 0.03 0.03 0.03 0.03 0.05 0.06 0.06 0.04 0.03 0.02 0.02 0.02 0.03 0.03 0.03 0.02 0.01 0.01 0.00 0.00 0.00
0.02 0.02 0.02 0.02 0.02 0.03 0.03 0.03 0.04 0.05 0.05 0.05 0.06 0.05 0.06 0.06 0.05 0.05 0.05 0.04 0.04 0.04 0.03 0.03 0.02 0.02 0.03 0.03 0.04 0.03 0.03 0.02 0.02 0.02 0.02 0.03 0.03 0.03 0.02 0.01 0.01 0.01 0.01
0.03 0.02 0.02 0.02 0.02 0.02 0.02 0.03 0.03 0.03 0.03 0.03 0.04 0.05 0.04 0.05 0.05 0.04 0.05 0.05 0.05 0.05 0.05 0.05 0.03 0.02 0.02 0.02 0.01 0.01 0.01 0.01 0.02 0.02 0.02 0.02 0.02 0.02 0.03 0.03 0.02 0.02 0.02
0.02 0.02 0.01 0.02 0.02 0.02 0.02 0.02 0.02 0.03 0.02 0.02 0.03 0.04 0.04 0.05 0.06 0.06 0.05 0.05 0.06 0.06 0.06 0.06 0.05 0.04 0.03 0.03 0.02 0.01 0.01 0.02 0.01 0.01 0.02 0.03 0.03 0.02 0.02 0.02 0.03 0.02 0.02
0.01 0.02 0.02 0.02 0.02 0.02 0.02 0.02 0.01 0.02 0.02 0.01 0.01 0.03 0.04 0.05 0.07 0.07 0.05 0.05 0.05 0.05 0.05 0.04 0.04 0.03 0.03 0.02 0.02 0.02 0.02 0.02 0.02 0.02 0.02 0.03 0.04 0.03 0.02 0.02 0.02 0.03 0.02
0.01 0.01 0.02 0.02 0.02 0.03 0.02 0.01 0.01 0.01 0.01 0.01 0.01 0.01 0.03 0.04 0.05 0.06 0.07 0.05 0.04 0.04 0.03 0.03 0.02 0.02 0.02 0.02 0.02 0.01 0.02 0.02 0.02 0.01 0.02 0.02 0.03 0.04 0.03 0.03 0.02 0.03 0.03
0.01 0.01 0.02 0.03 0.02 0.02 0.01 0.01 0.01 0.01 0.01 0.01 0.01 0.01 0.02 0.03 0.03 0.04 0.05 0.05 0.04 0.04 0.04 0.03 0.02 0.02 0.02 0.02 0.02 0.02 0.02 0.02 0.02 0.01 0.02 0.02 0.03 0.03 0.03 0.03 0.03 0.02 0.02
0.01 0.01 0.01 0.03 0.03 0.02 0.01 0.01 0.01 0.01 0.01 0.01 0.01 0.02 0.02 0.03 0.03 0.03 0.04 0.05 0.04 0.04 0.03 0.02 0.02 0.02 0.02 0.02 0.02 0.02 0.02 0.02 0.02 0.02 0.02 0.02 0.03 0.03 0.03 0.03 0.03 0.02 0.02
0.01 0.01 0.01 0.03 0.03 0.01 0.00 0.00 0.01 0.01 0.01 0.01 0.01 0.01 0.01 0.03 0.03 0.03 0.03 0.04 0.03 0.03 0.03 0.03 0.03 0.02 0.02 0.02 0.02 0.02 0.02 0.02 0.02 0.03 0.03 0.03 0.03 0.03 0.03 0.03 0.03 0.03 0.02
0.02 0.02 0.02 0.03 0.03 0.01 0.01 0.00 0.00 0.01 0.01 0.01 0.01 0.01 0.01 0.02 0.03 0.03 0.03 0.02 0.02 0.02 0.02 0.03 0.03 0.02 0.02 0.01 0.02 0.02 0.02 0.02 0.02 0.03 0.04 0.04 0.05 0.04 0.04 0.04 0.03 0.03 0.03
0.02 0.02 0.02 0.03 0.02 0.01 0.01 0.01 0.01 0.01 0.01 0.01 0.01 0.01 0.01 0.01 0.03 0.03 0.02 0.01 0.01 0.01 0.02 0.02 0.02 0.02 0.02 0.02 0.02 0.02 0.01 0.02 0.02 0.03 0.03 0.04 0.05 0.05 0.05 0.05 0.04 0.04 0.03
0.03 0.03 0.03 0.03 0.02 0.02 0.01 0.01 0.01 0.01 0.01 0.01 0.01 0.01 0.01 0.01 0.02 0.03 0.02 0.01 0.01 0.01 0.01 0.01 0.02 0.02 0.02 0.02 0.02 0.02 0.02 0.02 0.02 0.02 0.02 0.03 0.04 0.04 0.04 0.05 0.04 0.04 0.03
0.03 0.03 0.03 0.03 0.03 0.02 0.01 0.01 0.01 0.02 0.02 0.02 0.01 0.01 0.01 0.01 0.01 0.02 0.02 0.01 0.00 0.01 0.01 0.01 0.02 0.02 0.02 0.02 0.02 0.02 0.01 0.01 0.01 0.02 0.02 0.02 0.02 0.03 0.04 0.04 0.04 0.03 0.03
0.03 0.03 0.03 0.03 0.03 0.02 0.01 0.01 0.01 0.02 0.02 0.02 0.02 0.01 0.01 0.01 0.01 0.01 0.01 0.01 0.01 0.01 0.00 0.00 0.01 0.01 0.02 0.03 0.03 0.02 0.02 0.01 0.02 0.02 0.02 0.02 0.02 0.02 0.03 0.03 0.03 0.03 0.02
0.02 0.02 0.02 0.02 0.03 0.02 0.01 0.01 0.01 0.02 0.02 0.02 0.02 0.02 0.02 0.02 0.01 0.01 0.01 0.01 0.01 0.01 0.00 0.00 0.00 0.00 0.01 0.01 0.02 0.02 0.02 0.02 0.02 0.02 0.02 0.02 0.02 0.02 0.03 0.03 0.03 0.03 0.02
0.02 0.02 0.02 0.02 0.03 0.03 0.02 0.02 0.02 0.02 0.01 0.01 0.01 0.02 0.03 0.03 0.02 0.01 0.01 0.01 0.01 0.01 0.01 0.01 0.01 0.00 0.00 0.01 0.01 0.02 0.02 0.02 0.02 0.02 0.02 0.03 0.03 0.03 0.03 0.03 0.03 0.02 0.02
0.02 0.02 0.02 0.02 0.02 0.03 0.02 0.02 0.02 0.01 0.01 0.01 0.01 0.02 0.02 0.02 0.01 0.01 0.01 0.01 0.02 0.02 0.02 0.01 0.01 0.01 0.01 0.00 0.01 0.01 0.02 0.02 0.02 0.02 0.02 0.01 0.02 0.02 0.02 0.02 0.03 0.03 0.02
0.01 0.01 0.02 0.02 0.02 0.03 0.03 0.02 0.02 0.01 0.01 0.01 0.01 0.01 0.01 0.01 0.01 0.01 0.01 0.01 0.02 0.02 0.03 0.02 0.02 0.01 0.01 0.01 0.01 0.01 0.01 0.01 0.01 0.01 0.01 0.02 0.02 0.01 0.01 0.01 0.01 0.02 0.02
0.01 0.01 0.02 0.02 0.03 0.03 0.03 0.03 0.02 0.02 0.01 0.02 0.02 0.02 0.02 0.01 0.01 0.01 0.01 0.01 0.01 0.01 0.01 0.01 0.01 0.01 0.01 0.01 0.01 0.01 0.01 0.01 0.01 0.01 0.01 0.01 0.01 0.01 0.01 0.01 0.01 0.01 0.01
0.01 0.01 0.01 0.02 0.02 0.03 0.03 0.03 0.03 0.03 0.02 0.02 0.03 0.02 0.02 0.02 0.01 0.01 0.01 0.01 0.01 0.01 0.01 0.01 0.01 0.01 0.01 0.01 0.01 0.01 0.01 0.01 0.01 0.02 0.02 0.01 0.01 0.01 0.01 0.01 0.01 0.01 0.01
0.01 0.01 0.01 0.02 0.02 0.02 0.03 0.03 0.04 0.04 0.03 0.03 0.03 0.02 0.02 0.02 0.02 0.01 0.01 0.02 0.01 0.01 0.01 0.01 0.01 0.01 0.01 0.01 0.01 0.01 0.01 0.01 0.01 0.02 0.02 0.02 0.02 0.02 0.02 0.02 0.02 0.02 0.02
MSLP
1004.76 1004.31 1003.82 1003.35 1002.93 1002.65 1002.56 1002.70 1003.10 1003.74 1004.58 1005.56 1006.60 1007.64 1008.64 1009.55 1010.37 1011.10 1011.79 1012.45 1013.10 1013.76 1014.44 1015.10 1015.75 1016.35 1016.90 1017.38 1017.80 1018.18 1018.53 1018.86 1019.18 1019.49 1019.78 1020.05 1020.28 1020.47 1020.62 1020.73 1020.84 1020.94 1021.06
1004.19 1003.81 1003.39 1002.97 1002.60 1002.35 1002.29 1002.46 1002.88 1003.54 1004.39 1005.36 1006.40 1007.44 1008.44 1009.36 1010.21 1011.00 1011.76 1012.50 1013.25 1014.00 1014.74 1015.46 1016.12 1016.71 1017.22 1017.65 1018.01 1018.32 1018.62 1018.90 1019.19 1019.47 1019.75 1019.99 1020.20 1020.37 1020.49 1020.58 1020.66 1020.75 1020.86
1003.41 1003.14 1002.82 1002.48 1002.18 1002.00 1001.99 1002.20 1002.65 1003.32 1004.17 1005.13 1006.16 1007.18 1008.16 1009.09 1009.96 1010.80 1011.62 1012.45 1013.28 1014.12 1014.93 1015.69 1016.38 1016.96 1017.44 1017.83 1018.13 1018.39 1018.63 1018.87 1019.12 1019.38 1019.63 1019.86 1020.04 1020.18 1020.27 1020.33 1020.38 1020.45 1020.55
1002.49 1002.33 1002.11 1001.88 1001.68 1001.58 1001.64 1001.90 1002.39 1003.08 1003.92 1004.88 1005.88 1006.87 1007.83 1008.75 1009.63 1010.50 1011.37 1012.26 1013.17 1014.08 1014.95 1015.76 1016.47 1017.06 1017.53 1017.89 1018.16 1018.38 1018.58 1018.79 1019.01 1019.25 1019.48 1019.69 1019.85 1019.96 1020.02 1020.04 1020.07 1020.11 1020.20
1001.52 1001.46 1001.34 1001.20 1001.09 1001.07 1001.21 1001.53 1002.07 1002.79 1003.65 1004.59 1005.57 1006.55 1007.49 1008.39 1009.26 1010.14 1011.04 1011.97 1012.92 1013.88 1014.81 1015.65 1016.39 1017.00 1017.46 1017.81 1018.07 1018.27 1018.46 1018.66 1018.88 1019.11 1019.34 1019.54 1019.68 1019.77 1019.81 1019.80 1019.80 1019.81 1019.87
1000.64 1000.63 1000.57 1000.49 1000.44 1000.50 1000.70 1001.09 1001.68 1002.44 1003.32 1004.29 1005.27 1006.23 1007.15 1008.03 1008.90 1009.76 1010.66 1011.60 1012.57 1013.55 1014.51 1015.38 1016.14 1016.76 1017.25 1017.61 1017.88 1018.09 1018.29 1018.51 1018.74 1018.99 1019.23 1019.43 1019.58 1019.67 1019.68 1019.66 1019.62 1019.60 1019.63
999.97 999.94 999.88 999.81 999.79 999.87 1000.12 1000.56 1001.21 1002.02 1002.95 1003.95 1004.95 1005.92 1006.84 1007.71 1008.56 1009.40 1010.28 1011.20 1012.17 1013.15 1014.10 1014.99 1015.77 1016.41 1016.92 1017.31 1017.60 1017.85 1018.08 1018.33 1018.60 1018.88 1019.15 1019.38 1019.55 1019.64 1019.66 1019.63 1019.57 1019.52 1019.51
999.60 999.49 999.35 999.22 999.16 999.23 999.49 999.96 1000.65 1001.52 1002.51 1003.56 1004.61 1005.62 1006.55 1007.42 1008.25 1009.08 1009.92 1010.82 1011.75 1012.71 1013.66 1014.54 1015.33 1016.00 1016.53 1016.96 1017.29 1017.58 1017.85 1018.14 1018.45 1018.78 1019.09 1019.37 1019.57 1019.69 1019.73 1019.69 1019.62 1019.55 1019.51
999.61 999.34 999.05 998.79 998.63 998.63 998.85 999.32 1000.04 1000.95 1002.01 1003.13 1004.24 1005.30 1006.27 1007.16 1007.99 1008.80 1009.62 1010.47 1011.37 1012.30 1013.23 1014.11 1014.90 1015.59 1016.15 1016.61 1016.98 1017.31 1017.62 1017.95 1018.31 1018.68 1019.04 1019.36 1019.62 1019.78 1019.84 1019.83 1019.76 1019.67 1019.61
1000.00 999.51 999.00 998.55 998.22 998.10 998.25 998.68 999.40 1000.36 1001.47 1002.66 1003.84 1004.97 1005.99 1006.91 1007.76 1008.56 1009.36 1010.19 1011.06 1011.96 1012.87 1013.74 1014.54 1015.24 1015.82 1016.31 1016.71 1017.07 1017.42 1017.78 1018.17 1018.57 1018.98 1019.35 1019.65 1019.86 1019.97 1019.99 1019.94 1019.85 1019.77
1000.72 999.98 999.23 998.55 998.02 997.74 997.77 998.13 998.82 999.79 1000.94 1002.18 1003.43 1004.62 1005.71 1006.68 1007.55 1008.37 1009.17 1009.98 1010.84 1011.72 1012.61 1013.48 1014.28 1014.99 1015.60 1016.11 1016.53 1016.91 1017.27 1017.64 1018.04 1018.47 1018.90 1019.30 1019.65 1019.92 1020.08 1020.14 1020.12 1020.05 1019.96
1001.70 1000.71 999.71 998.80 998.07 997.61 997.50 997.76 998.39 999.33 1000.48 1001.76 1003.06 1004.30 1005.44 1006.46 1007.37 1008.21 1009.02 1009.84 1010.69 1011.57 1012.46 1013.33 1014.14 1014.87 1015.49 1016.01 1016.45 1016.83 1017.18 1017.55 1017.95 1018.37 1018.82 1019.25 1019.63 1019.95 1020.16 1020.28 1020.30 1020.26 1020.18
1002.82 1001.63 1000.43 999.31 998.39 997.76 997.51 997.65 998.20 999.07 1000.20 1001.47 1002.78 1004.05 1005.22 1006.28 1007.23 1008.10 1008.93 1009.77 1010.62 1011.51 1012.41 1013.29 1014.12 1014.86 1015.50 1016.03 1016.46 1016.84 1017.18 1017.53 1017.91 1018.32 1018.76 1019.20 1019.61 1019.96 1020.23 1020.40 1020.48 1020.48 1020.42
1004.01 1002.68 1001.33 1000.07 999.00 998.24 997.85 997.87 998.31 999.09 1000.15 1001.36 1002.65 1003.91 1005.09 1006.17 1007.14 1008.03 1008.89 1009.75 1010.62 1011.52 1012.43 1013.33 1014.18 1014.94 1015.59 1016.13 1016.58 1016.95 1017.28 1017.60 1017.95 1018.34 1018.76 1019.20 1019.63 1020.01 1020.32 1020.55 1020.68 1020.72 1020.71
1005.18 1003.80 1002.39 1001.05 999.90 999.04 998.54 998.44 998.76 999.43 1000.37 1001.50 1002.71 1003.93 1005.08 1006.15 1007.12 1008.03 1008.91 1009.78 1010.67 1011.59 1012.52 1013.43 1014.30 1015.08 1015.75 1016.31 1016.77 1017.14 1017.46 1017.77 1018.10 1018.46 1018.86 1019.29 1019.72 1020.13 1020.48 1020.75 1020.93 1021.02 1021.04
1006.31 1004.95 1003.55 1002.21 1001.04 1000.12 999.54 999.34 999.53 1000.07 1000.88 1001.88 1002.99 1004.12 1005.21 1006.25 1007.21 1008.11 1008.99 1009.87 1010.78 1011.70 1012.65 1013.58 1014.46 1015.27 1015.97 1016.55 1017.03 1017.41 1017.74 1018.04 1018.36 1018.71 1019.09 1019.51 1019.94 1020.36 1020.73 1021.03 1021.25 1021.38 1021.43
1007.36 1006.09 1004.77 1003.49 1002.34 1001.42 1000.79 1000.51 1000.58 1000.97 1001.63 1002.49 1003.47 1004.49 1005.51 1006.48 1007.41 1008.30 1009.18 1010.06 1010.96 1011.89 1012.84 1013.78 1014.68 1015.51 1016.23 1016.85 1017.36 1017.77 1018.12 1018.44 1018.75 1019.10 1019.47 1019.88 1020.30 1020.72 1021.09 1021.41 1021.65 1021.80 1021.87
1008.32 1007.18 1005.99 1004.81 1003.73 1002.84 1002.19 1001.84 1001.81 1002.07 1002.58 1003.29 1004.13 1005.03 1005.96 1006.87 1007.76 1008.63 1009.49 1010.36 1011.26 1012.19 1013.14 1014.08 1014.98 1015.82 1016.57 1017.22 1017.77 1018.22 1018.60 1018.95 1019.28 1019.63 1020.00 1020.39 1020.80 1021.20 1021.57 1021.88 1022.11 1022.26 1022.33
1009.22 1008.22 1007.16 1006.11 1005.13 1004.29 1003.65 1003.25 1003.14 1003.28 1003.66 1004.23 1004.94 1005.73 1006.57 1007.43 1008.28 1009.12 1009.97 1010.84 1011.72 1012.64 1013.57 1014.50 1015.40 1016.25 1017.01 1017.69 1018.27 1018.76 1019.19 1019.56 1019.92 1020.28 1020.65 1021.03 1021.42 1021.79 1022.12 1022.40 1022.61 1022.73 1022.77
1010.06 1009.19 1008.27 1007.35 1006.47 1005.70 1005.08 1004.67 1004.49 1004.54 1004.81 1005.27 1005.88 1006.58 1007.36 1008.16 1008.99 1009.82 1010.65 1011.51 1012.38 1013.28 1014.19 1015.09 1015.97 1016.81 1017.58 1018.27 1018.88 1019.40 1019.86 1020.26 1020.64 1021.01 1021.37 1021.74 1022.09 1022.42 1022.71 1022.95 1023.11 1023.19 1023.18
1010.85 1010.09 1009.30 1008.50 1007.73 1007.04 1006.46 1006.05 1005.84 1005.83 1006.03 1006.41 1006.94 1007.59 1008.31 1009.09 1009.90 1010.72 1011.56 1012.40 1013.26 1014.13 1015.00 1015.87 1016.72 1017.53 1018.28 1018.97 1019.58 1020.12 1020.60 1021.02 1021.41 1021.77 1022.12 1022.46 1022.77 1023.06 1023.30 1023.47 1023.58 1023.60 1023.54
1011.61 1010.96 1010.29 1009.60 1008.93 1008.32 1007.80 1007.42 1007.20 1007.17 1007.32 1007.65 1008.14 1008.75 1009.45 1010.22 1011.02 1011.84 1012.67 1013.51 1014.34 1015.18 1016.01 1016.83 1017.62 1018.39 1019.10 1019.76 1020.36 1020.89 1021.36 1021.78 1022.16 1022.51 1022.84 1023.14 1023.41 1023.64 1023.83 1023.94 1023.99 1023.96 1023.85
1012.37 1011.81 1011.25 1010.67 1010.11 1009.59 1009.14 1008.79 1008.60 1008.56 1008.70 1009.01 1009.47 1010.06 1010.76 1011.52 1012.32 1013.14 1013.96 1014.78 1015.58 1016.38 1017.15 1017.91 1018.64 1019.34 1020.00 1020.61 1021.16 1021.66 1022.11 1022.50 1022.86 1023.18 1023.47 1023.73 1023.96 1024.14 1024.28 1024.34 1024.34 1024.27 1024.11
1013.14 1012.69 1012.23 1011.77 1011.32 1010.89 1010.51 1010.23 1010.06 1010.04 1010.19 1010.49 1010.94 1011.52 1012.21 1012.96 1013.76 1014.56 1015.37 1016.15 1016.92 1017.65 1018.36 1019.05 1019.70 1020.33 1020.91 1021.45 1021.95 1022.40 1022.80 1023.16 1023.47 1023.75 1024.00 1024.22 1024.40 1024.54 1024.64 1024.67 1024.64 1024.54 1024.36
1013.96 1013.62 1013.28 1012.93 1012.59 1012.25 1011.96 1011.73 1011.61 1011.62 1011.77 1012.07 1012.51 1013.08 1013.75 1014.48 1015.25 1016.03 1016.80 1017.54 1018.25 1018.92 1019.56 1020.16 1020.74 1021.28 1021.78 1022.25 1022.68 1023.07 1023.41 1023.71 1023.98 1024.22 1024.42 1024.60 1024.74 1024.85 1024.92 1024.94 1024.90 1024.79 1024.61
1014.83 1014.61 1014.40 1014.17 1013.93 1013.69 1013.47 1013.30 1013.22 1013.25 1013.41 1013.70 1014.13 1014.67 1015.30 1016.00 1016.73 1017.46 1018.17 1018.86 1019.50 1020.10 1020.66 1021.19 1021.68 1022.14 1022.57 1022.96 1023.33 1023.65 1023.94 1024.19 1024.41 1024.59 1024.76 1024.89 1025.01 1025.09 1025.15 1025.16 1025.12 1025.03 1024.87
Thickness
5627 5630 5634 5637 5640 5641 5642 5644 5643 5643 5643 5642 5641 5641 5640 5639 5638 5637 5636 5636 5636 5635 5634 5633 5632 5632 5632 5631 5630 5629 5627 5625 5623 5623 5622 5621 5619 5618 5616 5615 5613 5611 5609
5616 5619 5623 5627 5631 5633 5634 5635 5636 5635 5635 5634 5634 5633 5630 5629 5628 5628 5627 5627 5627 5627 5626 5625 5624 5623 5623 5622 5620 5620 5619 5616 5614 5615 5615 5615 5615 5612 5609 5607 5605 5604 5601
5609 5610 5613 5617 5621 5623 5625 5626 5626 5627 5626 5626 5624 5621 5620 5619 5618 5618 5618 5618 5618 5618 5618 5617 5616 5615 5614 5613 5611 5610 5610 5608 5606 5605 5606 5607 5610 5607 5604 5601 5598 5596 5594
5598 5601 5603 5606 5610 5612 5614 5616 5617 5617 5616 5616 5615 5615 5615 5614 5613 5612 5610 5609 5609 5609 5608 5608 5607 5605 5605 5604 5602 5601 5600 5599 5598 5596 5594 5595 5595 5595 5597 5595 5592 5589 5587
5588 5590 5592 5595 5598 5600 5603 5605 5606 5607 5606 5607 5606 5607 5606 5605 5603 5602 5601 5600 5599 5599 5599 5598 5597 5596 5595 5594 5593 5591 5590 5590 5589 5588 5587 5586 5584 5584 5585 5587 5585 5582 5580
5577 5579 5581 5584 5587 5589 5591 5594 5596 5596 5597 5597 5597 5597 5596 5595 5593 5592 5591 5591 5590 5589 5588 5588 5587 5587 5586 5584 5583 5581 5581 5580 5579 5578 5577 5576 5576 5575 5574 5576 5576 5575 5573
5566 5569 5571 5574 5577 5578 5580 5582 5584 5586 5587 5587 5587 5586 5586 5585 5585 5583 5582 5582 5581 5580 5579 5578 5577 5576 5575 5574 5573 5572 5571 5570 5568 5567 5566 5565 5564 5563 5563 5563 5565 5565 5565
5555 5557 5560 5563 5566 5568 5570 5572 5574 5575 5576 5576 5576 5576 5575 5574 5574 5573 5573 5573 5572 5570 5569 5567 5566 5566 5565 5564 5563 5562 5561 5559 5558 5556 5554 5554 5553 5552 5551 5551 5551 5554 5556
5543 5545 5548 5550 5553 5557 5560 5562 5564 5564 5565 5566 5565 5565 5565 5564 5563 5563 5563 5562 5561 5560 5559 5557 5555 5554 5554 5553 5553 5552 5551 5549 5547 5545 5544 5543 5542 5541 5540 5539 5538 5539 5543
5530 5533 5536 5538 5541 5545 5548 5551 5553 5554 5554 5555 5556 5556 5555 5554 5553 5553 5552 5552 5551 5550 5549 5548 5546 5545 5543 5542 5542 5541 5540 5539 5537 5535 5534 5533 5532 5530 5529 5528 5528 5527 5528
5519 5522 5524 5528 5530 5533 5536 5540 5541 5543 5544 5545 5545 5545 5544 5543 5543 5543 5542 5542 5541 5540 5539 5538 5537 5536 5534 5532 5531 5531 5530 5528 5527 5525 5524 5523 5521 5520 5519 5518 5518 5516 5516
5508 5511 5514 5517 5520 5523 5526 5528 5530 5532 5533 5534 5534 5534 5533 5533 5533 5533 5532 5531 5530 5529 5529 5528 5527 5525 5524 5522 5521 5520 5519 5518 5517 5516 5515 5513 5512 5511 5509 5509 5508 5507 5505
5498 5500 5503 5506 5509 5513 5515 5517 5519 5520 5522 5523 5524 5524 5523 5523 5523 5523 5522 5521 5520 5519 5518 5517 5516 5515 5513 5512 5511 5510 5508 5507 5507 5506 5505 5504 5502 5501 5500 5499 5499 5497 5495
5487 5489 5491 5495 5498 5501 5504 5506 5508 5509 5510 5512 5513 5513 5513 5513 5513 5512 5511 5510 5509 5508 5507 5506 5505 5504 5502 5501 5500 5499 5498 5498 5497 5495 5494 5493 5492 5491 5490 5490 5489 5487 5486
5476 5478 5481 5484 5487 5490 5493 5495 5496 5498 5499 5501 5502 5503 5502 5502 5501 5501 5500 5499 5498 5497 5496 5495 5494 5492 5492 5491 5490 5489 5488 5488 5487 5485 5484 5483 5482 5480 5479 5479 5478 5477 5475
5465 5467 5469 5472 5475 5478 5481 5483 5485 5487 5489 5491 5492 5491 5490 5490 5490 5490 5489 5488 5487 5486 5485 5484 5483 5481 5481 5479 5478 5478 5478 5477 5476 5476 5474 5473 5471 5470 5469 5468 5467 5465 5464
5455 5456 5458 5460 5464 5467 5470 5472 5474 5476 5478 5480 5480 5480 5480 5479 5479 5478 5477 5477 5476 5476 5474 5473 5472 5471 5469 5468 5467 5466 5466 5466 5465 5465 5464 5463 5461 5460 5459 5458 5457 5455 5452
5445 5447 5448 5450 5452 5455 5458 5461 5463 5465 5467 5469 5469 5469 5468 5468 5468 5467 5466 5465 5465 5464 5463 5461 5460 5459 5458 5457 5456 5455 5454 5454 5454 5454 5453 5452 5451 5450 5448 5448 5447 5445 5443
5435 5436 5438 5439 5442 5445 5447 5450 5453 5454 5456 5457 5457 5457 5456 5456 5456 5456 5455 5455 5454 5452 5451 5450 5449 5448 5447 5446 5444 5443 5443 5443 5443 5442 5441 5440 5440 5439 5437 5436 5436 5435 5433
5424 5425 5427 5429 5432 5434 5437 5440 5442 5444 5444 5445 5444 5444 5444 5444 5445 5444 5444 5443 5442 5440 5439 5438 5438 5437 5437 5435 5434 5432 5433 5433 5432 5432 5430 5429 5428 5427 5426 5425 5424 5424 5423
5413 5414 5417 5419 5421 5423 5426 5428 5430 5432 5432 5432 5432 5432 5432 5432 5432 5432 5431 5431 5430 5429 5427 5427 5426 5426 5425 5424 5423 5422 5422 5422 5422 5421 5420 5419 5417 5416 5415 5414 5413 5412 5411
5402 5404 5406 5408 5410 5412 5414 5417 5418 5419 5419 5420 5420 5420 5420 5419 5419 5419 5419 5418 5418 5417 5416 5416 5415 5414 5413 5412 5412 5411 5411 5410 5410 5410 5410 5409 5407 5406 5405 5404 5403 5401 5400
5392 5393 5395 5397 5399 5400 5402 5404 5405 5406 5407 5408 5408 5408 5408 5407 5408 5408 5407 5406 5406 5406 5405 5405 5404 5403 5402 5402 5401 5400 5399 5399 5399 5399 5398 5397 5397 5396 5396 5395 5394 5392 5391
5381 5382 5384 5386 5388 5389 5390 5391 5392 5393 5395 5396 5396 5396 5396 5396 5396 5395 5395 5395 5395 5395 5394 5394 5393 5392 5391 5391 5390 5390 5389 5389 5388 5388 5387 5387 5387 5386 5386 5385 5385 5383 5381
5370 5371 5373 5374 5376 5377 5378 5379 5380 5381 5383 5383 5384 5384 5384 5384 5384 5383 5383 5383 5383 5384 5383 5382 5382 5382 5381 5380 5379 5379 5379 5378 5378 5377 5377 5377 5377 5377 5377 5376 5375 5373 5372
5360 5361 5362 5364 5365 5366 5367 5368 5368 5369 5371 5372 5373 5373 5373 5373 5373 5373 5372 5371 5371 5371 5371 5371 5370 5370 5370 5369 5369 5368 5368 5368 5367 5367 5367 5367 5367 5367 5366 5366 5365 5364 5362